This is the latest recevied weather packets stored in our database for station/object EA3KZ-1. If no packets are shown the sender has not sent any weather packets the latest 10 day(s).
| Time | Temp. | Humidity | Pressure | Rain* | Wind** | Luminosity | Snow |
|---|---|---|---|---|---|---|---|
| 1777279270 | 19.44° C | 67% | 1014.7 hPa | 0 mm | - | - | - |
| 1777278667 | 19.44° C | 67% | 1014.8 hPa | 0 mm | - | - | - |
| 1777278064 | 19.44° C | 68% | 1014.9 hPa | 0 mm | - | - | - |
| 1777277462 | 19.44° C | 67% | 1014.7 hPa | 0 mm | - | - | - |
| 1777276859 | 19.44° C | 66% | 1014.9 hPa | 0 mm | - | - | - |
| 1777276257 | 19.44° C | 67% | 1014.9 hPa | 0 mm | - | - | - |
| 1777275654 | 20° C | 67% | 1014.7 hPa | 0 mm | - | - | - |
| 1777275051 | 19.44° C | 67% | 1014.6 hPa | 0 mm | - | - | - |
| 1777274449 | 20° C | 65% | 1014.5 hPa | 0 mm | - | - | - |
| 1777273846 | 19.44° C | 65% | 1014.6 hPa | 0 mm | - | - | - |
| 1777273244 | 20° C | 64% | 1014.6 hPa | 0 mm | - | - | - |
| 1777272641 | 20.56° C | 63% | 1014.4 hPa | 0 mm | - | - | - |
| 1777272038 | 20.56° C | 64% | 1014.6 hPa | 0 mm | - | - | - |
| 1777271436 | 18.89° C | 69% | 1014.5 hPa | 0 mm | - | - | - |
| 1777270833 | 18.33° C | 71% | 1014.4 hPa | 0 mm | - | - | - |
| 1777270230 | 17.78° C | 72% | 1014.4 hPa | 0 mm | - | - | - |
| 1777269628 | 17.78° C | 71% | 1014.3 hPa | 0 mm | - | - | - |
| 1777269025 | 17.78° C | 72% | 1014.2 hPa | 0 mm | - | - | - |
| 1777268423 | 17.78° C | 72% | 1014.1 hPa | 0 mm | - | - | - |
| 1777267820 | 17.78° C | 72% | 1014.1 hPa | 0 mm | - | - | - |
| 1777267217 | 17.78° C | 71% | 1014 hPa | 0 mm | - | - | - |
| 1777266675 | 17.22° C | 72% | 1014 hPa | 0 mm | - | - | - |
| 1777266072 | 17.22° C | 73% | 1013.9 hPa | 0 mm | - | - | - |
| 1777265469 | 17.22° C | 72% | 1013.9 hPa | 0 mm | - | - | - |
| 1777264867 | 17.78° C | 71% | 1013.7 hPa | 0 mm | - | - | - |
* Rain latest hour (hover to see other rain measurements)
** Current wind speed in m/s (hover to see current wind gust speed)